Weather History for Grand Marais, MN

Change the Weather History Date:

Monday, May 27, 2013

  Actual Average (KCKC) Record (KCKC)
Temperature  
Mean Temperature 49 °F -  
Max Temperature 57 °F 59 °F 78 °F (1998)
Min Temperature 43 °F 38 °F 26 °F (2008)
Degree Days  
Heating Degree Days 16    
Moisture  
Dew Point 33 °F    
Average Humidity 57    
Maximum Humidity 68    
Minimum Humidity 33    
Precipitation  
Precipitation 0.00 in - - ()
Sea Level Pressure  
Sea Level Pressure 30.09 in    
Wind  
Wind Speed 8 mph (ENE)    
Max Wind Speed 13 mph    
Max Gust Speed 21 mph    
Averages and records for this station are not official NWS values.
T = Trace of Precipitation, MM = Missing Value Source: NWS Daily Summary

Daily Weather History Graph

Daily Weather History Graph

Search for Another Location

Airport:

Trip Planner

Search our weather history database for the weather conditions in past years. The results will help you decide how hot, cold, wet, or windy it might be!

Date:

Astronomy

May. 27, 2013 Rise Set
Actual Time 5:10 AM CDT 8:47 PM CDT
Civil Twilight 4:31 AM CDT 9:26 PM CDT
Nautical Twilight 3:39 AM CDT 10:18 PM CDT
Astronomical Twilight 2:28 AM CDT 11:30 PM CDT
Moon 11:20 PM CDT (5/27) 7:51 AM CDT (5/27)
Length of Visible Light 16h 54m
Length of Day
15h 36m
Waning Gibbous, 91% of the Moon is Illuminated
May 27
Waning Gibbous
May 31
Last Quarter
Jun 8
New
Jun 16
First Quarter
Jun 23
Full

Hourly Weather History & Observations

Time (CDT) Temp. Windchill Dew Point Humidity Pressure Visibility Wind Dir Wind Speed Gust Speed Precip Events Conditions
12:56 AM 55.0 °F - 26.1 °F 33% 30.18 in - NE 8.1 mph - N/A   Unknown
1:56 AM 53.1 °F - 26.1 °F 35% 30.15 in - NE 9.2 mph - N/A   Unknown
2:56 AM 50.0 °F - 28.9 °F 44% 30.17 in - NE 5.8 mph - N/A   Unknown
3:56 AM 45.0 °F - 32.0 °F 60% 30.17 in - Calm Calm - N/A   Unknown
4:56 AM 44.1 °F 42.5 °F 34.0 °F 68% 30.16 in - NE 3.5 mph - N/A   Unknown
5:56 AM 44.1 °F 42.5 °F 33.1 °F 65% 30.16 in - ENE 3.5 mph - N/A   Unknown
6:56 AM 45.0 °F 42.6 °F 34.0 °F 65% 30.19 in - ENE 4.6 mph - N/A   Unknown
7:56 AM 43.0 °F 38.8 °F 33.1 °F 68% 30.19 in - ENE 6.9 mph - N/A   Unknown
8:56 AM 45.0 °F 40.1 °F 33.1 °F 63% 30.19 in - ENE 9.2 mph - N/A   Unknown
9:56 AM 46.0 °F 41.4 °F 34.0 °F 63% 30.16 in - ENE 9.2 mph - N/A   Unknown
10:56 AM 46.9 °F - 33.1 °F 59% 30.14 in - ENE 10.4 mph - N/A   Unknown
11:56 AM 46.0 °F 41.0 °F 34.0 °F 63% 30.13 in - ENE 10.4 mph - N/A   Unknown
12:56 PM 46.0 °F 40.6 °F 35.1 °F 66% 30.09 in - ENE 11.5 mph - N/A   Unknown
1:56 PM 46.0 °F 40.6 °F 35.1 °F 66% 30.06 in - ENE 11.5 mph - N/A   Unknown
2:56 PM 46.9 °F - 35.1 °F 63% 30.05 in - ENE 11.5 mph - N/A   Unknown
3:56 PM 53.1 °F - 33.1 °F 47% 30.05 in - ENE 11.5 mph 20.7 mph N/A   Unknown
4:56 PM 51.1 °F - 34.0 °F 52% 30.04 in - ENE 10.4 mph - N/A   Unknown
5:56 PM 52.0 °F - 34.0 °F 50% 30.00 in - ENE 12.7 mph - N/A   Unknown
6:56 PM 50.0 °F - 34.0 °F 54% 29.98 in - ENE 10.4 mph 19.6 mph N/A   Unknown
7:56 PM 48.0 °F - 34.0 °F 58% 29.96 in - ENE 9.2 mph - N/A   Unknown
8:56 PM 48.9 °F - 35.1 °F 59% 29.96 in - ENE 8.1 mph - N/A   Unknown
9:56 PM 54.0 °F - 35.1 °F 49% 29.96 in - ENE 11.5 mph - N/A   Unknown
10:56 PM 50.0 °F - 34.0 °F 54% 29.97 in - ENE 10.4 mph - N/A   Unknown
11:56 PM 48.0 °F - 35.1 °F 61% 29.97 in - Variable 4.6 mph - N/A   Unknown